This is the latest recevied weather packets stored in our database for station/object K9NZF-1. If no packets are shown the sender has not sent any weather packets the latest 10 day(s).
| Time | Temp. | Humidity | Pressure | Rain* | Wind** | Luminosity | Snow |
|---|---|---|---|---|---|---|---|
| 1777991489 | 15° C | 86% | 1007.5 hPa | 0 mm | - | 139 W/m² | - |
| 1777991429 | 15.56° C | 86% | 1007.5 hPa | 0 mm | - | 144 W/m² | - |
| 1777991368 | 15.56° C | 86% | 1007.4 hPa | 0 mm | - | 172 W/m² | - |
| 1777991309 | 15.56° C | 86% | 1007.4 hPa | 0 mm | - | 178 W/m² | - |
| 1777991248 | 15.56° C | 86% | 1007.4 hPa | 0 mm | - | 174 W/m² | - |
| 1777991188 | 15.56° C | 86% | 1007.4 hPa | 0 mm | - | 174 W/m² | - |
| 1777991121 | 15.56° C | 86% | 1007.3 hPa | 0 mm | - | 183 W/m² | - |
| 1777991061 | 15° C | 86% | 1007.3 hPa | 0 mm | - | 218 W/m² | - |
| 1777991000 | 15° C | 86% | 1007.3 hPa | 0 mm | - | 218 W/m² | - |
| 1777990940 | 15° C | 86% | 1007.3 hPa | 0 mm | - | 234 W/m² | - |
| 1777990881 | 15° C | 86% | 1007.3 hPa | 0 mm | - | 262 W/m² | - |
| 1777990822 | 15° C | 86% | 1007.2 hPa | 0 mm | - | 294 W/m² | - |
| 1777990758 | 15° C | 86% | 1007.2 hPa | 0 mm | - | 297 W/m² | - |
| 1777990700 | 15° C | 86% | 1007.3 hPa | 0 mm | - | 199 W/m² | - |
| 1777990639 | 15° C | 85% | 1007.3 hPa | 0 mm | - | 199 W/m² | - |
| 1777990573 | 15° C | 85% | 1007.4 hPa | 0 mm | - | 172 W/m² | - |
| 1777990511 | 15° C | 85% | 1007.3 hPa | 0 mm | - | 160 W/m² | - |
| 1777990452 | 15° C | 85% | 1007.4 hPa | 0 mm | - | 163 W/m² | - |
| 1777990388 | 15° C | 85% | 1007.4 hPa | 0 mm | - | 185 W/m² | - |
| 1777990329 | 15° C | 86% | 1007.4 hPa | 0 mm | - | 188 W/m² | - |
| 1777990020 | 15° C | 86% | 1007.2 hPa | 0 mm | - | 130 W/m² | - |
| 1777989960 | 15° C | 86% | 1007.2 hPa | 0 mm | - | 155 W/m² | - |
| 1777989897 | 15° C | 86% | 1007.2 hPa | 0 mm | - | 192 W/m² | - |
| 1777989844 | 15° C | 86% | 1007.2 hPa | 0 mm | - | 186 W/m² | - |
| 1777989779 | 15° C | 86% | 1007.2 hPa | 0 mm | - | 174 W/m² | - |
* Rain latest hour (hover to see other rain measurements)
** Current wind speed in m/s (hover to see current wind gust speed)